Back to catalog

GB 1

AliveScienceLEO
NORAD 14143·PAYLOAD·🇺🇸 United States

Launched Jun 9, 1983 from Vandenberg Space Force Base

Loading…

Next Passes (next 24 hours)

TLE

FreshSource: Space-Track

Epoch: Sep 13, 2026, 16:41 UTC

1 14143U 83056C   26256.69543258  .00002616  00000-0  35113-3 0  9999
2 14143  63.3155  10.1972 0715815 133.1296 233.1944 13.79418367358843

Track GB 1 in real time with AllMySat

Download on the App Store